Weather History for McCall, ID

Change the Weather History Date:

Wednesday, November 5, 2014

  Actual Average Record
Temperature  
Mean Temperature 41 °F 33 °F  
Max Temperature 50 °F 44 °F 65 °F (1980)
Min Temperature 32 °F 23 °F -4 °F (2003)
Degree Days  
Heating Degree Days 24 32  
Month to date heating degree days 142 155  
Since 1 July heating degree days 1112 1698  
Cooling Degree Days 0 0  
Month to date cooling degree days 0 0  
Year to date cooling degree days 185 25  
Moisture  
Dew Point 38 °F    
Average Humidity 82    
Maximum Humidity 93    
Minimum Humidity 71    
Precipitation  
Precipitation T in 0.11 in 0.91 in (1973)
Month to date precipitation 0.40 0.51  
Year to date precipitation 19.41 15.83  
Sea Level Pressure  
Sea Level Pressure 30.39 in    
Wind  
Wind Speed 2 mph (SE)    
Max Wind Speed 9 mph    
Max Gust Speed 11 mph    
Visibility 9 miles    
Events Fog , Snow    
T = Trace of Precipitation, MM = Missing Value Source: NWS Daily Summary

Daily Weather History Graph

Daily Weather History Graph

Search for Another Location

Airport:

Trip Planner

Search our weather history database for the weather conditions in past years. The results will help you decide how hot, cold, wet, or windy it might be!

Date:

Astronomy

Nov. 05, 2014 Rise Set
Actual Time 7:28 AM MST 5:27 PM MST
Civil Twilight 6:57 AM MST 5:58 PM MST
Nautical Twilight 6:22 AM MST 6:32 PM MST
Astronomical Twilight 5:48 AM MST 7:07 PM MST
Moon 4:58 PM MST (11/5) 5:54 AM MST (11/5)
Length of Visible Light 11h 00m
Length of Day
9h 58m
Waxing Gibbous, 98% of the Moon is Illuminated
Nov 5
Waxing Gibbous
Nov 6
Full
Nov 14
Last Quarter
Nov 22
New
Nov 29
First Quarter

Hourly Weather History & Observations

Time (MST) Temp. Windchill Dew Point Humidity Pressure Visibility Wind Dir Wind Speed Gust Speed Precip Events Conditions
12:51 AM 39.0 °F - 37.9 °F 96% 30.38 in 10.0 mi Calm Calm - N/A   Overcast
1:51 AM 39.0 °F - 37.9 °F 96% 30.39 in 10.0 mi Calm Calm - N/A   Overcast
2:02 AM 39.0 °F - 37.9 °F 96% 30.36 in 10.0 mi Calm Calm - N/A   Overcast
2:33 AM 39.0 °F - 37.0 °F 93% 30.36 in 10.0 mi Calm Calm - N/A   Overcast
2:51 AM 39.0 °F - 37.9 °F 96% 30.40 in 10.0 mi Calm Calm - N/A   Overcast
3:51 AM 39.0 °F - 37.9 °F 96% 30.39 in 10.0 mi Calm Calm - N/A   Overcast
4:10 AM 39.0 °F - 37.9 °F 96% 30.36 in 10.0 mi Calm Calm - N/A   Overcast
4:19 AM 39.0 °F - 37.9 °F 96% 30.36 in 10.0 mi Calm Calm - N/A   Overcast
4:39 AM 39.0 °F - 37.9 °F 96% 30.35 in 10.0 mi Calm Calm - N/A   Overcast
4:47 AM 39.2 °F - 37.4 °F 93% 30.35 in 10.0 mi Calm Calm - N/A   Overcast
4:51 AM 39.0 °F - 37.9 °F 96% 30.39 in 10.0 mi Calm Calm - N/A   Overcast
5:51 AM 39.0 °F - 37.9 °F 96% 30.40 in 10.0 mi Calm Calm - N/A   Overcast
6:36 AM 39.0 °F 35.7 °F 37.0 °F 93% 30.36 in 10.0 mi SE 4.6 mph - N/A   Overcast
6:47 AM 39.2 °F - 37.4 °F 93% 30.36 in 10.0 mi Calm Calm - N/A   Overcast
6:51 AM 39.0 °F - 37.9 °F 96% 30.39 in 10.0 mi Calm Calm - N/A   Overcast
7:51 AM 39.0 °F - 37.9 °F 96% 30.42 in 10.0 mi Calm Calm - N/A   Overcast
8:08 AM 39.0 °F - 37.9 °F 96% 30.39 in 10.0 mi Calm Calm - N/A   Overcast
8:19 AM 39.0 °F - 37.9 °F 96% 30.39 in 10.0 mi Calm Calm - N/A   Overcast
8:51 AM 39.9 °F - 37.9 °F 93% 30.43 in 10.0 mi Calm Calm - N/A   Overcast
9:43 AM 42.1 °F - 39.9 °F 92% 30.42 in 10.0 mi Calm Calm - N/A   Overcast
9:49 AM 42.8 °F - 39.2 °F 87% 30.42 in 10.0 mi Calm Calm - N/A   Overcast
9:51 AM 42.1 °F - 39.9 °F 92% 30.45 in 10.0 mi Calm Calm - N/A   Overcast
10:51 AM 43.0 °F 40.3 °F 39.9 °F 89% 30.45 in 10.0 mi South 4.6 mph - N/A   Overcast
11:00 AM 43.0 °F 38.2 °F 39.9 °F 89% 30.43 in 10.0 mi South 8.1 mph - N/A   Overcast
11:19 AM 44.1 °F 40.1 °F 39.9 °F 85% 30.42 in 10.0 mi SSE 6.9 mph - N/A   Overcast
11:51 AM 44.1 °F 40.8 °F 39.9 °F 85% 30.44 in 10.0 mi SSW 5.8 mph - N/A   Overcast
12:51 PM 46.0 °F 44.8 °F 41.0 °F 83% 30.42 in 10.0 mi Variable 3.5 mph - N/A   Overcast
1:38 PM 48.0 °F - 41.0 °F 77% 30.40 in 10.0 mi SE 6.9 mph - N/A   Overcast
1:51 PM 48.0 °F - 41.0 °F 77% 30.40 in 10.0 mi SSE 6.9 mph - N/A   Overcast
2:51 PM 48.9 °F - 41.0 °F 74% 30.38 in 10.0 mi Calm Calm - N/A   Overcast
3:14 PM 48.9 °F - 41.0 °F 74% 30.38 in 10.0 mi Calm Calm - N/A   Overcast
3:51 PM 50.0 °F - 42.1 °F 74% 30.38 in 10.0 mi Variable 4.6 mph - N/A   Mostly Cloudy
4:51 PM 48.9 °F - 39.9 °F 71% 30.38 in 10.0 mi SSE 4.6 mph - N/A   Scattered Clouds
5:51 PM 46.0 °F - 39.9 °F 79% 30.38 in 10.0 mi Calm Calm - N/A   Scattered Clouds
6:03 PM 44.1 °F - 39.9 °F 85% 30.37 in 10.0 mi Calm Calm - N/A   Mostly Cloudy
6:26 PM 43.0 °F 41.3 °F 39.9 °F 89% 30.38 in 10.0 mi NE 3.5 mph - N/A   Scattered Clouds
6:51 PM 41.0 °F 37.1 °F 39.0 °F 93% 30.40 in 10.0 mi NE 5.8 mph - N/A   Clear
7:51 PM 39.0 °F - 37.0 °F 93% 30.41 in 10.0 mi Calm Calm - N/A   Clear
8:15 PM 37.0 °F - 36.0 °F 96% 30.38 in 2.5 mi Calm Calm - N/A   Partly Cloudy
8:27 PM 37.0 °F - 35.1 °F 93% 30.38 in 7.0 mi Calm Calm - N/A   Partly Cloudy
8:51 PM 36.0 °F 33.3 °F 34.0 °F 93% 30.42 in 7.0 mi North 3.5 mph - 0.00 in Snow Light Snow
9:51 PM 35.1 °F - 34.0 °F 96% 30.40 in 9.0 mi Calm Calm - 0.00 in Snow Light Snow
10:51 PM 35.1 °F - 32.0 °F 89% 30.40 in 10.0 mi Calm Calm - 0.00 in   Clear
11:10 PM 34.0 °F - 33.1 °F 96% 30.37 in 10.0 mi Calm Calm - N/A   Partly Cloudy
11:42 PM 32.0 °F - 30.9 °F 96% 30.36 in 1.5 mi Calm Calm - 0.00 in Snow Light Snow
11:45 PM 32.0 °F - 30.9 °F 96% 30.36 in 0.8 mi Calm Calm - 0.00 in   Clear
11:51 PM 32.0 °F - 30.9 °F 96% 30.40 in 0.5 mi Calm Calm - 0.00 in Fog Fog
11:58 PM 32.0 °F - 32.0 °F 100% 30.36 in 1.5 mi Calm Calm - N/A   Clear